Fort Rucker / Ozark, AL

6:02 AM CDT on June 23, 2017 (GMT -0500)
Fort Rucker / Ozark

Weather History for KLOR - November, 2013

Change the Weather History Date:

Friday, November 29, 2013

  Actual Average (KOZR) Record (KOZR)
Temperature  
Mean Temperature 44 °F -  
Max Temperature 61 °F 63 °F 80 °F (2016)
Min Temperature 28 °F 41 °F 29 °F (2013)
Degree Days  
Heating Degree Days 20    
Moisture  
Dew Point 29 °F    
Average Humidity 68    
Maximum Humidity 96    
Minimum Humidity 25    
Precipitation  
Precipitation 0.00 in - - ()
Sea Level Pressure  
Sea Level Pressure 30.46 in    
Wind  
Wind Speed 1 mph (NE)    
Max Wind Speed 7 mph    
Max Gust Speed 16 mph    
Visibility 10 miles    
Events      
Averages and records for this station are not official NWS values.
T = Trace of Precipitation, MM = Missing Value Source: NWS Daily Summary

Daily Weather History Graph

Daily Weather History Graph

Search for Another Location

Airport or City:

Trip Planner

Search our weather history database for the weather conditions in past years. The results will help you decide how hot, cold, wet, or windy it might be!

Date:

Astronomy

Nov. 29, 2013 Rise Set
Actual Time 6:22 AM CST 4:39 PM CST
Civil Twilight 5:56 AM CST 5:06 PM CST
Nautical Twilight 5:26 AM CST 5:36 PM CST
Astronomical Twilight 4:57 AM CST 6:05 PM CST
Moon 2:40 AM CST (11/29) 2:13 PM CST (11/29)
Length of Visible Light 11h 09m
Length of Day
10h 17m
Waning Crescent, 14% of the Moon is Illuminated
Nov 29
Waning Crescent
Dec 2
New
Dec 9
First Quarter
Dec 17
Full
Dec 25
Last Quarter

Hourly Weather History & Observations

Time (CST) Temp. Windchill Dew Point Humidity Pressure Visibility Wind Dir Wind Speed Gust Speed Precip Events Conditions
12:53 AM 30.9 °F - 28.9 °F 92% 30.45 in 9.0 mi Calm Calm - N/A   Clear
1:53 AM 30.0 °F - 28.0 °F 92% 30.46 in 10.0 mi Calm Calm - N/A   Clear
2:53 AM 28.9 °F - 27.0 °F 92% 30.46 in 10.0 mi Calm Calm - N/A   Clear
3:53 AM 30.0 °F - 28.0 °F 92% 30.45 in 9.0 mi Calm Calm - N/A   Clear
4:53 AM 30.0 °F - 28.0 °F 92% 30.46 in 8.0 mi Calm Calm - N/A   Clear
5:53 AM 30.0 °F - 27.0 °F 88% 30.48 in 10.0 mi Calm Calm - N/A   Clear
6:53 AM 28.0 °F - 26.1 °F 92% 30.51 in 7.0 mi Calm Calm - N/A   Clear
7:53 AM 36.0 °F - 33.1 °F 89% 30.52 in 10.0 mi Calm Calm - N/A   Clear
8:53 AM 45.0 °F 41.8 °F 28.9 °F 53% 30.53 in 10.0 mi NE 5.8 mph - N/A   Clear
9:53 AM 52.0 °F - 25.0 °F 35% 30.52 in 10.0 mi NE 4.6 mph - N/A   Clear
10:53 AM 55.0 °F - 24.1 °F 30% 30.49 in 10.0 mi Variable 5.8 mph 16.1 mph N/A   Clear
11:53 AM 57.0 °F - 25.0 °F 29% 30.46 in 10.0 mi Variable 4.6 mph - N/A   Clear
12:53 PM 59.0 °F - 24.1 °F 26% 30.43 in 10.0 mi NE 6.9 mph - N/A   Clear
1:53 PM 60.1 °F - 25.0 °F 26% 30.42 in 10.0 mi East 3.5 mph - N/A   Clear
2:53 PM 61.0 °F - 25.0 °F 25% 30.43 in 10.0 mi North 6.9 mph - N/A   Clear
3:53 PM 60.1 °F - 27.0 °F 28% 30.42 in 10.0 mi Calm Calm - N/A   Clear
4:53 PM 48.9 °F - 32.0 °F 52% 30.42 in 10.0 mi Calm Calm - N/A   Clear
5:53 PM 42.1 °F - 34.0 °F 73% 30.44 in 10.0 mi Calm Calm - N/A   Clear
6:53 PM 39.9 °F - 34.0 °F 79% 30.45 in 10.0 mi Calm Calm - N/A   Clear
7:53 PM 37.0 °F - 34.0 °F 89% 30.45 in 10.0 mi Calm Calm - N/A   Clear
8:53 PM 35.1 °F - 32.0 °F 89% 30.46 in 10.0 mi Calm Calm - N/A   Clear
9:53 PM 33.1 °F - 30.9 °F 92% 30.45 in 9.0 mi Calm Calm - N/A   Clear
10:53 PM 30.9 °F - 30.0 °F 96% 30.44 in 8.0 mi Calm Calm - N/A   Clear
11:53 PM 30.9 °F - 28.9 °F 92% 30.43 in 8.0 mi Calm Calm - N/A   Clear